Starlink 30584

operational
NORAD ID: 58089 Int'l Des: 2023-160 Owner: SPXS Country: US Constellation: starlink
LEOCIRCULAR

About Starlink 30584

Description loading...

Live Position

Loading 3D Globe...

Upcoming Passes

Altitude History

Altitude vs Time

uPlot chart will show altitude changes over time

Two-Line Element Set

1 58089U 23160Q 25306.00743902 -.00000505 00000-0 -22278-4 0 9990
2 58089 43.0039 53.8322 0001417 276.6159 83.4522 15.02533041113714
Epoch: Nov 2, 2025 • Age: 47 hours

Current Status

Altitude 559.9 km
Velocity 7.59 km/s
Sub-Earth Point 25.90°N, 162.54°E
Launch Date Oct 18, 2023
Age 2 years
Type internet

Technical Details

Classification Payload
Mass 730.00 kg
Dry Mass 700.00 kg
Total Mass 730.00 kg
Length 0.30 m
Diameter 4.10 m
Span 29.00 m
Shape Box + pan
Manufacturer SPXS
Bus Type Starlink V2M
Phase Status In Orbit
Owner/State SPXS/US

Large Constellations

Loading constellations...